Torna al catalogo

SL-12 R/B

AUX MOTOR

AttivoHEO
NORAD 20631·ROCKET BODY·🇷🇺 Russia

Lanciato May 19, 1990 da Baikonur Cosmodrome

Loading…

Prossimi Passaggi (prossime 24 ore)

TLE

AggiornatoSource: Space-Track

Epoca: Sep 13, 2026, 16:06 UTC

1 20631U 90045G   26256.67111837  .00000071  00000-0  46062-3 0  9994
2 20631  64.9387  12.1413 5507805 131.4221 291.1585  4.52138834581044

Traccia SL-12 R/B in tempo reale con AllMySat

Download on the App Store